Location: Czekanka
(50.4925°N, 19.2643°E)
Time: 00:21:01
(UTC+00:00)

ADEOS II - Pass Details

Date: 22 September 2024
Orbit: 795 x 798 km, 98.7° (Epoch: 09 October)

Event Time Altitude Azimuth Distance (km) Brightness Sun altitude
Rises 00:02:11 0° 25° (NNE) 3,311 6.3 -36.1°
Reaches altitude 10° 00:05:04 10° 41° (NE) 2,375 5.3 -35.9°
Enters shadow 00:08:26 21° 81° (E) 1,721 4.1 -35.6°
